sat.trackr.live / text

‹ back to catalog

STARLINK-11098 [DTC]

NORAD 59760 · 2024-091H

PAYLOAD ACTIVE UNKNOWN

§ Identity

Operator
Country
US
Launch date
2024-05-14
Launch site
AFWTR
Launch vehicle
Mass (kg)
RCS (m²)

Purposes: comms

External: N2YO · Heavens-Above · Gunter

§ Orbital elements

Epoch: 2026-05-25T03:40:02.733024Z

Period
91.74 min
Inclination
53.1581°
Eccentricity
0.0001029
Mean motion
15.69727974 rev/d
Perigee alt
359.0 km
Apogee alt
360.4 km
Semi-major
6,737.8 km
B*
1.4186e-5
RAAN
189.2592°
Arg perigee
71.7449°
Mean anomaly
288.3681°
Rev number
11,752

§ Raw data

STARLINK-11098 [DTC]1 59760U 24091H   26145.15280941  .00001132  00000+0  14186-4 0  99912 59760  53.1581 189.2592 0001029  71.7449 288.3681 15.69727974117521

JSON: /api/v1/satellites/59760 · /tle

For live sub-satellite position, see the globe view (requires WebGL).

§ Visibility from observer

Set your observer location to see the next 7 days of passes ≥ 10°. The values pass through the URL so the page stays shareable.

No JS? Fill the form by hand. The geolocation button needs JavaScript.